This is the latest recevied weather packets stored in our database for station/object EA5LU-10. If no packets are shown the sender has not sent any weather packets the latest 10 day(s).
| Time | Temp. | Humidity | Pressure | Rain* | Wind** | Luminosity | Snow |
|---|---|---|---|---|---|---|---|
| 1777465945 | 26.11° C | 52% | 1002.3 hPa | - | - | - | - |
| 1777465044 | 26.67° C | 51% | 1002.2 hPa | - | - | - | - |
| 1777464143 | 26.11° C | 51% | 1002.4 hPa | - | - | - | - |
| 1777463243 | 25° C | 54% | 1002.5 hPa | - | - | - | - |
| 1777462342 | 25° C | 53% | 1002.7 hPa | - | - | - | - |
| 1777461441 | 25° C | 54% | 1002.6 hPa | - | - | - | - |
| 1777460540 | 24.44° C | 55% | 1002.7 hPa | - | - | - | - |
| 1777459639 | 23.89° C | 57% | 1002.8 hPa | - | - | - | - |
| 1777458738 | 24.44° C | 56% | 1002.7 hPa | - | - | - | - |
| 1777457838 | 24.44° C | 56% | 1002.7 hPa | - | - | - | - |
| 1777456937 | 23.33° C | 58% | 1002.7 hPa | - | - | - | - |
| 1777456036 | 22.78° C | 59% | 1002.7 hPa | - | - | - | - |
| 1777455135 | 23.33° C | 58% | 1002.6 hPa | - | - | - | - |
| 1777454234 | 22.78° C | 60% | 1002.5 hPa | - | - | - | - |
| 1777453334 | 22.78° C | 61% | 1002.4 hPa | - | - | - | - |
| 1777452433 | 22.22° C | 61% | 1002.4 hPa | - | - | - | - |
| 1777451532 | 22.22° C | 64% | 1002.4 hPa | - | - | - | - |
| 1777450631 | 22.22° C | 65% | 1002.5 hPa | - | - | - | - |
| 1777449730 | 21.11° C | 69% | 1002.5 hPa | - | - | - | - |
| 1777448829 | 21.11° C | 69% | 1002.6 hPa | - | - | - | - |
| 1777447928 | 20° C | 72% | 1002.6 hPa | - | - | - | - |
| 1777447028 | 18.89° C | 75% | 1002.5 hPa | - | - | - | - |
| 1777446127 | 18.33° C | 76% | 1002.6 hPa | - | - | - | - |
| 1777445226 | 17.22° C | 79% | 1002.4 hPa | - | - | - | - |
| 1777444325 | 17.22° C | 79% | 1002.2 hPa | - | - | - | - |
* Rain since midnight (hover to see other rain measurements)
** Current wind speed in m/s (hover to see current wind gust speed)